Location: Cisewo
(53.3833°N, 14.9000°E)
Time: 12:01:02
(UTC+00:00)

USA 229 - Pass Details

Date: 07 August 2021
Orbit: 956 x 1256 km, 63.5° (Epoch: 08 August)

Event Time Altitude Azimuth Distance (km) Brightness Sun altitude
Rises 19:12:41 0° 311° (NW) 3,909 9.4 -4.4°
Reaches altitude 10° 19:15:16 10° 312° (NW) 2,991 7.9 -4.7°
Maximum altitude 19:22:30 85° 42° (NE) 1,186 4.0 -5.6°
Drops below altitude 10° 19:30:11 10° 132° (SE) 3,179 5.5 -6.5°
Enters shadow 19:30:50 - 132° (SE) 3,404 5.6 -6.6°
